TimeEDT,TemperatureF,Dew PointF,Humidity,Sea Level PressureIn,VisibilityMPH,Wind Direction,Wind SpeedMPH,Gust SpeedMPH,PrecipitationIn,Events,Conditions,WindDirDegrees,DateUTC
12:54 AM,66.0,64.0,93,30.08,10.0,ESE,3.5,-,N/A,,Overcast,110,2013-07-10 04:54:00
1:54 AM,64.9,64.0,97,30.07,10.0,South,4.6,-,N/A,,Overcast,170,2013-07-10 05:54:00
2:01 AM,64.4,64.4,100,30.07,10.0,South,4.6,-,N/A,,Overcast,170,2013-07-10 06:01:00
2:09 AM,64.4,64.4,100,30.07,10.0,SSE,4.6,-,N/A,,Overcast,160,2013-07-10 06:09:00
2:54 AM,64.9,64.0,97,30.06,10.0,Calm,Calm,-,N/A,,Overcast,0,2013-07-10 06:54:00
3:54 AM,64.9,63.0,93,30.04,10.0,SE,3.5,-,N/A,,Overcast,130,2013-07-10 07:54:00
4:20 AM,64.4,62.6,94,30.04,10.0,ESE,4.6,-,N/A,,Overcast,120,2013-07-10 08:20:00
4:54 AM,64.0,63.0,96,30.04,10.0,SE,5.8,-,N/A,,Overcast,130,2013-07-10 08:54:00
5:54 AM,64.0,63.0,96,30.04,10.0,SE,5.8,-,N/A,,Overcast,140,2013-07-10 09:54:00
6:54 AM,64.0,63.0,96,30.04,10.0,Calm,Calm,-,N/A,,Overcast,0,2013-07-10 10:54:00
7:54 AM,64.9,62.1,90,30.03,10.0,SE,3.5,-,N/A,,Overcast,130,2013-07-10 11:54:00
8:22 AM,64.4,62.6,94,30.02,10.0,SE,4.6,-,N/A,,Overcast,140,2013-07-10 12:22:00
8:54 AM,64.9,62.1,90,30.01,10.0,ESE,4.6,-,N/A,,Overcast,110,2013-07-10 12:54:00
9:54 AM,64.9,63.0,93,30.00,10.0,Calm,Calm,-,N/A,,Overcast,0,2013-07-10 13:54:00
10:54 AM,66.0,63.0,90,29.98,10.0,SE,4.6,-,N/A,,Overcast,130,2013-07-10 14:54:00
11:54 AM,64.9,64.0,97,29.98,10.0,Calm,Calm,-,0.04,Rain,Light Rain,0,2013-07-10 15:54:00
12:54 PM,66.9,64.9,93,29.96,10.0,SSE,3.5,-,0.00,,Overcast,160,2013-07-10 16:54:00
1:54 PM,66.9,64.9,93,29.94,10.0,Calm,Calm,-,N/A,,Overcast,0,2013-07-10 17:54:00
2:54 PM,68.0,64.9,90,29.91,10.0,Calm,Calm,-,N/A,,Overcast,0,2013-07-10 18:54:00
3:54 PM,68.0,66.0,93,29.89,10.0,East,3.5,-,N/A,,Overcast,100,2013-07-10 19:54:00
4:54 PM,68.0,66.0,93,29.86,10.0,East,3.5,-,N/A,,Overcast,100,2013-07-10 20:54:00
5:14 PM,68.0,66.2,94,29.86,10.0,Calm,Calm,-,N/A,,Overcast,0,2013-07-10 21:14:00
5:54 PM,66.0,66.0,100,29.84,2.0,East,3.5,-,0.16,Rain,Heavy Rain,90,2013-07-10 21:54:00
6:10 PM,66.2,66.2,100,29.85,5.0,Calm,Calm,-,0.08,Rain,Heavy Rain,0,2013-07-10 22:10:00
6:13 PM,66.2,66.2,100,29.84,1.5,Calm,Calm,-,0.24,Rain,Heavy Rain,0,2013-07-10 22:13:00
6:20 PM,66.2,64.4,94,29.83,1.2,NNE,3.5,-,0.34,Rain,Heavy Rain,20,2013-07-10 22:20:00
6:23 PM,66.2,64.4,94,29.83,2.0,NE,4.6,-,0.36,Rain,Heavy Rain,40,2013-07-10 22:23:00
6:30 PM,66.2,66.2,100,29.83,6.0,Calm,Calm,-,0.39,Rain,Heavy Rain,0,2013-07-10 22:30:00
6:54 PM,66.0,66.0,100,29.83,3.0,Calm,Calm,-,0.54,Rain,Rain,0,2013-07-10 22:54:00
7:03 PM,66.2,64.4,94,29.85,2.5,Variable,4.6,-,0.12,Rain,Heavy Rain,0,2013-07-10 23:03:00
7:05 PM,66.2,64.4,94,29.83,1.8,Variable,4.6,-,0.18,Rain,Heavy Rain,0,2013-07-10 23:05:00
7:13 PM,66.2,66.2,100,29.83,3.0,Calm,Calm,-,0.19,Rain,Light Rain,0,2013-07-10 23:13:00
7:54 PM,66.9,66.0,97,29.83,10.0,Calm,Calm,-,0.22,Rain,Light Rain,0,2013-07-10 23:54:00
8:07 PM,66.2,64.4,94,29.83,10.0,Calm,Calm,-,0.00,,Overcast,0,2013-07-11 00:07:00
8:39 PM,66.2,66.2,100,29.82,10.0,Calm,Calm,-,0.00,,Overcast,0,2013-07-11 00:39:00
8:52 PM,66.2,66.2,100,29.82,10.0,Calm,Calm,-,0.00,,Overcast,0,2013-07-11 00:52:00
8:54 PM,66.9,66.0,97,29.82,10.0,Calm,Calm,-,0.00,,Overcast,0,2013-07-11 00:54:00
9:54 PM,66.9,66.0,97,29.82,10.0,Calm,Calm,-,0.01,,Overcast,0,2013-07-11 01:54:00
10:54 PM,66.0,64.9,96,29.81,10.0,Calm,Calm,-,N/A,,Overcast,0,2013-07-11 02:54:00
11:02 PM,66.2,64.4,94,29.81,10.0,Calm,Calm,-,N/A,,Overcast,0,2013-07-11 03:02:00
11:42 PM,66.2,64.4,94,29.80,10.0,Calm,Calm,-,N/A,,Overcast,0,2013-07-11 03:42:00
11:45 PM,66.2,64.4,94,29.80,10.0,Calm,Calm,-,N/A,,Overcast,0,2013-07-11 03:45:00
11:54 PM,66.0,64.9,96,29.79,10.0,Calm,Calm,-,N/A,,Overcast,0,2013-07-11 03:54:00